Weather History for Rocky Mount, NC

Change the Weather History Date:

Friday, March 29, 2013

  Actual Average Record
Temperature  
Mean Temperature 44 °F -  
Max Temperature 61 °F 69 °F 89 °F (1985)
Min Temperature 28 °F 44 °F 24 °F (1966)
Degree Days  
Heating Degree Days 21    
Moisture  
Dew Point 26 °F    
Average Humidity 54    
Maximum Humidity 85    
Minimum Humidity 24    
Precipitation  
Precipitation 0.00 in - - ()
Sea Level Pressure  
Sea Level Pressure 30.26 in    
Wind  
Wind Speed 2 mph (West)    
Max Wind Speed 12 mph    
Max Gust Speed 17 mph    
Visibility 10 miles    
Events      
Averages and records for this station are not official NWS values.
T = Trace of Precipitation, MM = Missing Value Source: NWS Daily Summary

Daily Weather History Graph

Daily Weather History Graph

Search for Another Location

Airport:

Trip Planner

Search our weather history database for the weather conditions in past years. The results will help you decide how hot, cold, wet, or windy it might be!

Date:

Astronomy

Mar. 29, 2013 Rise Set
Actual Time 7:01 AM EDT 7:31 PM EDT
Civil Twilight 6:36 AM EDT 7:56 PM EDT
Nautical Twilight 6:06 AM EDT 8:27 PM EDT
Astronomical Twilight 5:35 AM EDT 8:57 PM EDT
Moon 10:22 PM EDT (3/29) 8:15 AM EDT (3/29)
Length of Visible Light 13h 20m
Length of Day
12h 29m
Waning Gibbous, 93% of the Moon is Illuminated
Mar 29
Waning Gibbous
Apr 3
Last Quarter
Apr 10
New
Apr 18
First Quarter
Apr 25
Full

Hourly Weather History & Observations

Time (EDT) Temp. Windchill Dew Point Humidity Pressure Visibility Wind Dir Wind Speed Gust Speed Precip Events Conditions
12:53 AM 36.0 °F - 25.0 °F 64% 30.29 in 10.0 mi Calm Calm - N/A   Clear
1:53 AM 34.0 °F - 25.0 °F 70% 30.30 in 10.0 mi Calm Calm - N/A   Clear
2:53 AM 32.0 °F - 25.0 °F 75% 30.29 in 10.0 mi Calm Calm - N/A   Clear
3:53 AM 30.9 °F - 25.0 °F 79% 30.28 in 10.0 mi Calm Calm - N/A   Clear
4:53 AM 30.0 °F - 26.1 °F 85% 30.29 in 10.0 mi Calm Calm - N/A   Clear
5:53 AM 28.9 °F - 25.0 °F 85% 30.30 in 10.0 mi Calm Calm - N/A   Clear
6:53 AM 28.9 °F - 25.0 °F 85% 30.31 in 10.0 mi Calm Calm - N/A   Clear
7:53 AM 34.0 °F - 28.0 °F 79% 30.32 in 10.0 mi Calm Calm - N/A   Partly Cloudy
8:53 AM 43.0 °F 41.3 °F 28.0 °F 56% 30.33 in 10.0 mi West 3.5 mph - N/A   Scattered Clouds
9:53 AM 48.9 °F - 27.0 °F 43% 30.32 in 10.0 mi WNW 4.6 mph - N/A   Clear
10:53 AM 53.1 °F - 25.0 °F 34% 30.31 in 10.0 mi West 9.2 mph - N/A   Clear
11:53 AM 55.9 °F - 24.1 °F 29% 30.30 in 10.0 mi NNW 11.5 mph 16.1 mph N/A   Scattered Clouds
12:53 PM 55.9 °F - 24.1 °F 29% 30.27 in 10.0 mi WSW 5.8 mph - N/A   Clear
1:53 PM 57.0 °F - 24.1 °F 28% 30.25 in 10.0 mi WNW 9.2 mph - N/A   Partly Cloudy
2:53 PM 59.0 °F - 24.1 °F 26% 30.22 in 10.0 mi WSW 6.9 mph 17.3 mph N/A   Scattered Clouds
3:53 PM 59.0 °F - 21.9 °F 24% 30.20 in 10.0 mi NW 6.9 mph - N/A   Partly Cloudy
4:53 PM 60.1 °F - 24.1 °F 25% 30.19 in 10.0 mi Variable 4.6 mph - N/A   Mostly Cloudy
5:53 PM 59.0 °F - 24.1 °F 26% 30.19 in 10.0 mi WSW 5.8 mph - N/A   Mostly Cloudy
6:53 PM 57.0 °F - 25.0 °F 29% 30.19 in 10.0 mi SW 5.8 mph - N/A   Mostly Cloudy
7:53 PM 46.9 °F - 28.9 °F 50% 30.19 in 10.0 mi Calm Calm - N/A   Partly Cloudy
8:53 PM 44.1 °F - 30.9 °F 60% 30.21 in 10.0 mi Calm Calm - N/A   Overcast
9:53 PM 41.0 °F - 32.0 °F 70% 30.21 in 10.0 mi Calm Calm - N/A   Scattered Clouds
10:53 PM 39.9 °F - 32.0 °F 73% 30.21 in 10.0 mi Calm Calm - N/A   Mostly Cloudy
11:53 PM 41.0 °F - 32.0 °F 70% 30.21 in 10.0 mi Calm Calm - N/A   Overcast